Home   Weather   Friedrichshafen   Past weeks

Flag for Germany Past Weather in Friedrichshafen, Baden-Württemberg, Germany — Yesterday and Last 2 Weeks

Now
32 °F

Fog.


Feels Like: 32 °F
Forecast: 32 / 44 °F
Wind: 1 mph from North

Location: Friedrichshafen Airport

Current Time: Dec 10, 2016 at 5:40:29 pm

Latest Report: Dec 10, 2016 at 4:50 pm


Visibility: 0 mi

Pressure: 30.33 "Hg

Humidity: 100%

Dew Point: 32 °F

Location of FriedrichshafenLocation

Past Weather in Friedrichshafen — Graph

°F

Friedrichshafen Temperature Yesterday

Maximum temperature yesterday: 36 °F (at 2:50 pm)
Minimum temperature yesterday: 27 °F (at 12:20 am)
Average temperature yesterday: 30 °F

High & Low Weather Summary for the Past Weeks

 TemperatureHumidityPressure
High46 °F (Nov 27, 9:50 am)100% (Nov 26, 12:50 am)30.63 "Hg (Nov 26, 12:50 am)
Low19 °F (Nov 30, 5:20 am)42% (Nov 29, 2:50 pm)30.01 "Hg (Nov 27, 1:20 pm)
Average33 °F89%30.32 "Hg
* Reported Nov 25 4:20 pm — Dec 10 4:20 pm, Friedrichshafen, Weather by CustomWeather, © 2016

Note: Actual official high and low records may vary slightly from our data, if they occured in-between our weather recording intervals... More about our weather records

Advertising

Friedrichshafen Weather History for the Previous 24 Hours

Scroll right to see more
 ConditionsComfort  
Time TempWeatherWind HumidityBarometerVisibility
4:20 pm
Sat, Dec 10
32 °FFog.1 mph100%30.33 "Hg0 mi
3:50 pm34 °FFog.No wind93%30.33 "Hg0 mi
3:20 pm34 °FFog.1 mph100%30.33 "Hg0 mi
2:50 pm34 °FFog.1 mph100%30.33 "Hg1 mi
2:20 pm34 °FFog.No wind100%30.33 "Hg1 mi
1:50 pm34 °FFog.1 mph100%30.36 "Hg1 mi
1:20 pm34 °FFog.2 mph100%30.36 "Hg1 mi
12:50 pm34 °FFog.1 mph100%30.36 "Hg1 mi
12:20 pm34 °FFog.1 mph100%30.39 "Hg1 mi
11:50 am34 °FFog.2 mph100%30.39 "Hg1 mi
11:20 am34 °FFog.1 mph100%30.39 "Hg1 mi
10:50 am34 °FFog.2 mph93%30.39 "Hg1 mi
10:20 am32 °FFog.5 mph100%30.39 "Hg0 mi
9:50 am32 °FIce fog.1 mph100%30.39 "Hg0 mi
9:20 am32 °FIce fog.2 mph100%30.39 "Hg0 mi
8:50 am30 °FChilly.1 mph100%30.39 "Hg0 mi
8:20 am30 °FChilly.1 mph100%30.39 "Hg1 mi
7:50 am30 °FChilly.1 mph100%30.39 "Hg1 mi
7:20 am30 °FIce fog.1 mph100%30.39 "Hg0 mi
6:55 am30 °FChilly.2 mph100%30.39 "Hg0 mi
6:20 am28 °FChilly.2 mph100%30.39 "Hg0 mi
5:55 am28 °FChilly.2 mph100%30.39 "Hg0 mi
5:50 am28 °FChilly.2 mph100%30.39 "Hg0 mi
5:20 am28 °FChilly.2 mph100%30.39 "Hg0 mi
4:50 am28 °FChilly.2 mph100%30.39 "Hg0 mi
4:20 am28 °FChilly.5 mph100%30.39 "Hg0 mi
4:01 am28 °FSnow flurries. Ice fog.5 mph100%30.39 "Hg0 mi
3:50 am28 °FChilly.2 mph93%30.42 "Hg0 mi
3:20 am27 °FChilly.3 mph100%30.42 "Hg0 mi
2:55 am27 °FIce fog.3 mph100%30.42 "Hg0 mi
2:20 am27 °FChilly.1 mph100%30.42 "Hg1 mi
2:01 am27 °FChilly.2 mph100%30.42 "Hg0 mi
1:20 am27 °FPassing clouds.2 mph93%30.42 "Hg6 mi
12:50 am27 °FPassing clouds.1 mph93%30.42 "Hg4 mi
12:20 am27 °FChilly.1 mph100%30.42 "Hg4 mi
11:50 pm
Fri, Dec 9
27 °FChilly.1 mph100%30.45 "Hg5 mi
11:20 pm27 °FChilly.3 mph100%30.45 "Hg4 mi
10:50 pm27 °FChilly.3 mph100%30.45 "Hg5 mi
10:20 pm28 °FChilly.3 mph100%30.45 "Hg5 mi
9:50 pm28 °FIce fog.3 mph93%30.48 "Hg2 mi
9:20 pm28 °FIce fog.2 mph93%30.48 "Hg1 mi
8:50 pm27 °FIce fog.5 mph100%30.48 "Hg1 mi
8:20 pm27 °FIce fog.1 mph100%30.48 "Hg2 mi
7:50 pm28 °FIce fog.2 mph100%30.48 "Hg1 mi
7:20 pm30 °FIce fog.2 mph100%30.48 "Hg1 mi
6:50 pm28 °FIce fog.5 mph100%30.48 "Hg0 mi
6:20 pm30 °FIce fog.No wind100%30.48 "Hg1 mi
5:50 pm30 °FLight fog.1 mph100%30.48 "Hg1 mi
5:20 pm30 °FIce fog.2 mph100%30.51 "Hg2 mi
Weather by CustomWeather, © 2016

See weather overviewHow to use our weather pages